METAR AND TAF INFORMATION
METAR FOR PWAK
ADDS - METARS form results

(1819 UTC 23 March 2019)
Data provider http://aviationweather.gov/metar/data/
 
Forecast for: PWAK (WAKE ISLAND AIRF, UM, US)
Text: TAF PWAK 231400Z 2314/2420 10012KT 9999 FEW020 SCT030 QNH2995INS TX30/2404Z TN22/2318Z LIMITED METWATCH 2314 TIL 2322
Forecast period: 1400 UTC 23 March 2019 to 2000 UTC 24 March 2019
Forecast type: FROM: standard forecast or significant change
Winds: from the E (100 degrees) at 14 MPH (12 knots; 6.2 m/s)
Visibility: 6 or more miles 10+ km)
Ceiling: at least 12,000 feet AGL
Clouds: few clouds at 2000 feet AGL
scattered clouds at 3000 feet AGL
Weather: no significant weather forecast for this period

 AIRPORT MAP

 RUNWAY INFORMATION
Runway 10 Runway length 9843 ft Runway width 150 ft
Runway elevation 14 ft Runway displaced threshold 0 ft Runway heading 95
Runway 28 Runway length 9843 ft Runway width 150 ft
Runway elevation 12 ft Runway displaced threshold 0 ft Runway heading 275

 AIRPORT FREQUENCIES
Type A/G Name OPS AAS Frequency 128 MHZ
Type RDO Name OAKLAND OC Frequency 884.3 MHZ

 AIRPORT NEAR NAVIGATION AIDS
Type VORTAC Name Wake Island Frequency 113500 KHZ



Powered by Virtual Airlines Manager [v2.6.2]